Location: Unspecified
(0.0000°N, 0.0000°E)
Time: 13:57:43
(UTC+00:00)

ISS - Pass Details

Date: 11 April 2021
Orbit: 418 x 422 km, 51.6° (Epoch: 16 April)

Event Time Altitude Azimuth Distance (km) Brightness Sun altitude
Rises 18:57:28 0° 336° (NNW) 2,344 0.5 -14.0°
Reaches altitude 10° 18:59:38 10° 343° (NNW) 1,484 -0.6 -14.5°
Maximum altitude 19:02:46 40° 54° (NE) 629 -3.2 -15.3°
Enters shadow 19:03:29 34° 87° (E) 699 -3.2 -15.5°
